Baton Rouge, LA

10:22 AM CST on February 06, 2016 (GMT -0600)
Baton Rouge Metro-Ryan

Weather History for KBTR - October, 2014

Change the Weather History Date:

Wednesday, October 22, 2014

  Actual Average Record
Temperature  
Mean Temperature 68 °F 68 °F  
Max Temperature 80 °F 79 °F 90 °F (1934)
Min Temperature 55 °F 56 °F 39 °F (1976)
Degree Days  
Heating Degree Days 0 2  
Month to date heating degree days 3 21  
Since 1 July heating degree days 3 23  
Cooling Degree Days 3 4  
Month to date cooling degree days 162 145  
Year to date cooling degree days 2636 2716  
Growing Degree Days 18 (Base 50)    
Moisture  
Dew Point 54 °F    
Average Humidity 65    
Maximum Humidity 93    
Minimum Humidity 36    
Precipitation  
Precipitation 0.00 in 0.16 in 4.70 in (1984)
Month to date precipitation 2.35 3.31  
Year to date precipitation 52.53 49.56  
Snow  
Snow 0.00 in - - ()
Month to date snowfall 0.0  
Since 1 July snowfall 0.0  
Since 1 September snowfall 0.0  
Snow Depth 0.00 in    
Sea Level Pressure  
Sea Level Pressure 30.07 in    
Wind  
Wind Speed 6 mph (NNE)    
Max Wind Speed 14 mph    
Max Gust Speed 19 mph    
Visibility 10 miles    
Events      
T = Trace of Precipitation, MM = Missing Value Source: NWS Daily Summary

Daily Weather History Graph

Daily Weather History Graph

Search for Another Location

Airport or City:

Trip Planner

Search our weather history database for the weather conditions in past years. The results will help you decide how hot, cold, wet, or windy it might be!

Date:

Astronomy

Oct. 22, 2014 Rise Set
Actual Time 7:11 AM CDT 6:25 PM CDT
Civil Twilight 6:47 AM CDT 6:50 PM CDT
Nautical Twilight 6:19 AM CDT 7:18 PM CDT
Astronomical Twilight 5:51 AM CDT 7:46 PM CDT
Moon 5:58 AM CDT (10/22) 5:49 PM CDT (10/22)
Length of Visible Light 12h 03m
Length of Day
11h 14m
Waning Crescent, 1% of the Moon is Illuminated
Oct 22
Waning Crescent
Oct 23
New
Oct 30
First Quarter
Nov 6
Full
Nov 14
Last Quarter

Hourly Weather History & Observations

Time (CDT) Temp. Dew Point Humidity Pressure Visibility Wind Dir Wind Speed Gust Speed Precip Events Conditions
12:53 AM 61.0 °F 57.0 °F 87% 30.03 in 10.0 mi NNE 3.5 mph - N/A   Clear
1:53 AM 61.0 °F 57.0 °F 87% 30.04 in 10.0 mi North 3.5 mph - N/A   Clear
2:53 AM 57.9 °F 55.9 °F 93% 30.04 in 10.0 mi Calm Calm - N/A   Clear
3:53 AM 57.0 °F 55.0 °F 93% 30.04 in 10.0 mi Calm Calm - N/A   Clear
4:53 AM 57.0 °F 55.0 °F 93% 30.05 in 10.0 mi NNE 3.5 mph - N/A   Clear
5:53 AM 57.9 °F 55.0 °F 90% 30.06 in 10.0 mi NNE 6.9 mph - N/A   Clear
6:53 AM 57.9 °F 54.0 °F 87% 30.07 in 10.0 mi NE 5.8 mph - N/A   Clear
7:53 AM 59.0 °F 54.0 °F 83% 30.09 in 10.0 mi NE 4.6 mph - N/A   Clear
8:53 AM 64.0 °F 55.0 °F 73% 30.10 in 10.0 mi ENE 8.1 mph - N/A   Clear
9:53 AM 70.0 °F 54.0 °F 57% 30.11 in 10.0 mi NE 11.5 mph - N/A   Clear
10:53 AM 73.9 °F 54.0 °F 50% 30.12 in 10.0 mi ENE 8.1 mph - N/A   Clear
11:53 AM 77.0 °F 54.0 °F 45% 30.11 in 10.0 mi ENE 9.2 mph - N/A   Clear
12:53 PM 78.1 °F 54.0 °F 43% 30.08 in 10.0 mi NNE 12.7 mph 17.3 mph N/A   Clear
1:53 PM 79.0 °F 51.1 °F 38% 30.06 in 10.0 mi North 6.9 mph - N/A   Clear
2:53 PM 80.1 °F 51.1 °F 36% 30.05 in 10.0 mi North 8.1 mph - N/A   Clear
3:53 PM 79.0 °F 51.1 °F 38% 30.04 in 10.0 mi NNE 10.4 mph - N/A   Clear
4:53 PM 79.0 °F 51.1 °F 38% 30.04 in 10.0 mi NNE 9.2 mph - N/A   Clear
5:53 PM 73.9 °F 52.0 °F 46% 30.04 in 10.0 mi NE 5.8 mph - N/A   Clear
6:53 PM 64.9 °F 55.0 °F 70% 30.05 in 10.0 mi North 3.5 mph - N/A   Clear
7:53 PM 61.0 °F 55.9 °F 83% 30.06 in 10.0 mi Calm Calm - N/A   Clear
8:53 PM 59.0 °F 55.0 °F 87% 30.07 in 10.0 mi Calm Calm - N/A   Clear
9:53 PM 60.1 °F 54.0 °F 80% 30.09 in 10.0 mi NNE 4.6 mph - N/A   Clear
10:53 PM 60.1 °F 52.0 °F 75% 30.10 in 10.0 mi NNE 5.8 mph - N/A   Clear
11:53 PM 57.9 °F 51.1 °F 78% 30.09 in 10.0 mi NE 5.8 mph - N/A   Clear